TimeCST,TemperatureF,Dew PointF,Humidity,Sea Level PressureIn,VisibilityMPH,Wind Direction,Wind SpeedMPH,Gust SpeedMPH,PrecipitationIn,Events,Conditions,WindDirDegrees,DateUTC
12:15 AM,44.6,32.0,61,29.86,10.0,South,16.1,-,N/A,,Partly Cloudy,180,2013-01-27 06:15:00
12:35 AM,44.6,33.8,66,29.86,10.0,South,17.3,-,N/A,,Partly Cloudy,180,2013-01-27 06:35:00
12:55 AM,46.4,33.8,62,29.85,10.0,South,17.3,-,N/A,,Clear,190,2013-01-27 06:55:00
1:15 AM,46.4,33.8,62,29.84,10.0,South,17.3,-,N/A,,Partly Cloudy,190,2013-01-27 07:15:00
1:35 AM,46.4,35.6,66,29.83,10.0,South,20.7,-,N/A,,Mostly Cloudy,180,2013-01-27 07:35:00
1:55 AM,46.4,35.6,66,29.82,10.0,South,20.7,-,N/A,,Scattered Clouds,190,2013-01-27 07:55:00
2:15 AM,46.4,33.8,62,29.82,10.0,South,17.3,24.2,N/A,,Clear,190,2013-01-27 08:15:00
2:35 AM,46.4,35.6,66,29.82,10.0,South,18.4,-,N/A,,Mostly Cloudy,190,2013-01-27 08:35:00
2:55 AM,46.4,35.6,66,29.81,10.0,South,18.4,-,N/A,,Scattered Clouds,190,2013-01-27 08:55:00
3:15 AM,44.6,35.6,71,29.80,10.0,South,18.4,-,N/A,,Clear,190,2013-01-27 09:15:00
3:35 AM,46.4,35.6,66,29.79,10.0,South,17.3,-,N/A,,Clear,190,2013-01-27 09:35:00
3:55 AM,46.4,35.6,66,29.77,10.0,South,19.6,-,N/A,,Clear,190,2013-01-27 09:55:00
4:15 AM,46.4,37.4,71,29.77,10.0,SSW,18.4,24.2,N/A,,Clear,200,2013-01-27 10:15:00
4:35 AM,46.4,37.4,71,29.76,10.0,South,23.0,-,N/A,,Clear,190,2013-01-27 10:35:00
4:55 AM,46.4,37.4,71,29.75,10.0,SSW,20.7,26.5,N/A,,Clear,200,2013-01-27 10:55:00
5:15 AM,46.4,37.4,71,29.75,10.0,South,19.6,25.3,N/A,,Clear,190,2013-01-27 11:15:00
5:35 AM,46.4,39.2,76,29.74,10.0,SSW,19.6,-,N/A,,Clear,200,2013-01-27 11:35:00
5:55 AM,46.4,39.2,76,29.73,10.0,SSW,20.7,26.5,N/A,,Clear,200,2013-01-27 11:55:00
6:15 AM,46.4,39.2,76,29.73,10.0,SSW,23.0,27.6,N/A,,Clear,200,2013-01-27 12:15:00
6:35 AM,48.2,39.2,71,29.73,10.0,SSW,23.0,27.6,N/A,,Clear,200,2013-01-27 12:35:00
6:55 AM,48.2,41.0,76,29.73,10.0,SSW,25.3,28.8,N/A,,Clear,210,2013-01-27 12:55:00
7:15 AM,48.2,39.2,71,29.73,10.0,SSW,17.3,-,N/A,,Clear,210,2013-01-27 13:15:00
7:35 AM,48.2,39.2,71,29.73,10.0,SSW,20.7,26.5,N/A,,Clear,210,2013-01-27 13:35:00
7:55 AM,48.2,39.2,71,29.74,10.0,SSW,19.6,-,N/A,,Clear,210,2013-01-27 13:55:00
8:15 AM,48.2,39.2,71,29.74,10.0,SSW,18.4,-,N/A,,Clear,210,2013-01-27 14:15:00
8:35 AM,48.2,39.2,71,29.75,10.0,SW,17.3,-,N/A,,Clear,220,2013-01-27 14:35:00
8:55 AM,50.0,41.0,71,29.75,10.0,SSW,18.4,-,N/A,,Clear,210,2013-01-27 14:55:00
9:15 AM,51.8,42.8,71,29.75,10.0,SSW,18.4,26.5,N/A,,Clear,210,2013-01-27 15:15:00
9:35 AM,53.6,42.8,67,29.74,10.0,SSW,23.0,27.6,N/A,,Clear,210,2013-01-27 15:35:00
9:55 AM,55.4,42.8,63,29.75,10.0,SW,23.0,29.9,N/A,,Clear,220,2013-01-27 15:55:00
10:15 AM,57.2,42.8,59,29.75,10.0,SW,25.3,31.1,N/A,,Clear,220,2013-01-27 16:15:00
10:35 AM,59.0,42.8,55,29.75,10.0,SW,26.5,34.5,N/A,,Clear,230,2013-01-27 16:35:00
10:55 AM,60.8,42.8,52,29.76,10.0,SW,27.6,35.7,N/A,,Clear,230,2013-01-27 16:55:00
11:15 AM,62.6,42.8,48,29.77,10.0,WSW,27.6,36.8,N/A,,Clear,240,2013-01-27 17:15:00
11:35 AM,64.4,42.8,45,29.76,10.0,SW,25.3,32.2,N/A,,Clear,230,2013-01-27 17:35:00
11:55 AM,66.2,42.8,43,29.75,10.0,SW,26.5,32.2,N/A,,Clear,230,2013-01-27 17:55:00
12:15 PM,66.2,42.8,43,29.75,10.0,WSW,25.3,-,N/A,,Clear,240,2013-01-27 18:15:00
12:35 PM,69.8,42.8,38,29.74,10.0,WSW,23.0,29.9,N/A,,Clear,240,2013-01-27 18:35:00
12:55 PM,69.8,41.0,35,29.73,10.0,WSW,21.9,26.5,N/A,,Clear,250,2013-01-27 18:55:00
1:15 PM,71.6,41.0,33,29.72,10.0,SW,21.9,26.5,N/A,,Clear,230,2013-01-27 19:15:00
1:35 PM,71.6,41.0,33,29.72,10.0,West,18.4,27.6,N/A,,Clear,270,2013-01-27 19:35:00
1:55 PM,71.6,39.2,31,29.71,10.0,West,18.4,24.2,N/A,,Clear,270,2013-01-27 19:55:00
2:15 PM,71.6,39.2,31,29.70,10.0,West,12.7,-,N/A,,Clear,260,2013-01-27 20:15:00
2:35 PM,71.6,37.4,29,29.70,10.0,WNW,15.0,18.4,N/A,,Clear,290,2013-01-27 20:35:00
2:55 PM,71.6,37.4,29,29.71,10.0,West,10.4,16.1,N/A,,Clear,280,2013-01-27 20:55:00
3:15 PM,71.6,37.4,29,29.71,10.0,WNW,8.1,17.3,N/A,,Clear,290,2013-01-27 21:15:00
3:35 PM,71.6,37.4,29,29.71,10.0,NW,10.4,-,N/A,,Clear,320,2013-01-27 21:35:00
3:55 PM,71.6,37.4,29,29.71,10.0,NNW,6.9,-,N/A,,Clear,330,2013-01-27 21:55:00
4:15 PM,71.6,37.4,29,29.71,10.0,North,11.5,-,N/A,,Clear,10,2013-01-27 22:15:00
4:35 PM,69.8,37.4,31,29.71,10.0,North,10.4,-,N/A,,Clear,10,2013-01-27 22:35:00
4:55 PM,68.0,35.6,30,29.72,10.0,North,12.7,-,N/A,,Clear,10,2013-01-27 22:55:00
5:15 PM,66.2,35.6,32,29.72,10.0,NNE,11.5,-,N/A,,Clear,20,2013-01-27 23:15:00
5:35 PM,64.4,35.6,34,29.73,10.0,NE,9.2,-,N/A,,Clear,40,2013-01-27 23:35:00
5:55 PM,62.6,35.6,37,29.73,10.0,NE,10.4,-,N/A,,Clear,40,2013-01-27 23:55:00
6:15 PM,60.8,35.6,39,29.74,10.0,NE,9.2,-,N/A,,Clear,50,2013-01-28 00:15:00
6:35 PM,59.0,35.6,42,29.74,10.0,ENE,8.1,-,N/A,,Clear,60,2013-01-28 00:35:00
6:55 PM,57.2,35.6,44,29.75,10.0,ENE,10.4,-,N/A,,Clear,70,2013-01-28 00:55:00
7:15 PM,57.2,35.6,44,29.76,10.0,ESE,6.9,-,N/A,,Clear,110,2013-01-28 01:15:00
7:35 PM,55.4,35.6,47,29.77,10.0,East,6.9,-,N/A,,Clear,100,2013-01-28 01:35:00
7:55 PM,53.6,33.8,47,29.77,10.0,East,6.9,-,N/A,,Clear,90,2013-01-28 01:55:00
8:15 PM,50.0,33.8,54,29.78,10.0,Calm,Calm,-,N/A,,Clear,0,2013-01-28 02:15:00
8:35 PM,51.8,35.6,54,29.78,10.0,East,3.5,-,N/A,,Clear,80,2013-01-28 02:35:00
8:55 PM,51.8,33.8,50,29.78,10.0,East,8.1,-,N/A,,Clear,100,2013-01-28 02:55:00
9:15 PM,51.8,33.8,50,29.78,10.0,East,13.8,-,N/A,,Clear,100,2013-01-28 03:15:00
9:35 PM,51.8,35.6,54,29.78,10.0,East,12.7,-,N/A,,Clear,100,2013-01-28 03:35:00
9:55 PM,50.0,35.6,58,29.78,10.0,East,12.7,-,N/A,,Clear,100,2013-01-28 03:55:00
10:15 PM,48.2,33.8,58,29.78,10.0,ESE,8.1,-,N/A,,Clear,110,2013-01-28 04:15:00
10:35 PM,46.4,33.8,62,29.78,10.0,ESE,9.2,-,N/A,,Clear,110,2013-01-28 04:35:00
10:55 PM,46.4,33.8,62,29.78,10.0,ESE,9.2,-,N/A,,Clear,110,2013-01-28 04:55:00
11:15 PM,42.8,30.2,61,29.78,10.0,SE,4.6,-,N/A,,Clear,130,2013-01-28 05:15:00
11:35 PM,41.0,30.2,65,29.78,10.0,South,4.6,-,N/A,,Clear,170,2013-01-28 05:35:00
11:55 PM,37.4,26.6,65,29.78,10.0,SSW,6.9,-,N/A,,Clear,210,2013-01-28 05:55:00